Location: Risskov
(56.1972°N, 10.2480°E)
Time: 00:29:13
(UTC+00:00)

BlueWalker 3 - Pass Details

Date: 03 December 2022
Orbit: 498 x 517 km, 53.2° (Epoch: 08 February)

Event Time Altitude Azimuth Distance (km) Brightness Sun altitude
Rises 15:37:34 0° 244° (WSW) 2,633 8.2 -6.5°
Reaches altitude 10° 15:39:50 10° 239° (WSW) 1,743 6.5 -6.8°
Maximum altitude 15:43:37 46° 165° (SSE) 700 2.8 -7.2°
Drops below altitude 10° 15:47:22 10° 92° (E) 1,734 4.1 -7.7°
Enters shadow 15:47:59 - 90° (E) 1,970 4.4 -7.8°
